User: anonymous   Login
Location: Unspecified
(0.0000°N, 0.0000°E)
Time: 13:07:18
(UTC+00:00)
Language:

QBEE50-LTU-OC - Orbit

View from above orbital plane
View from above orbital plane
View from above satellite
View from above satellite

Ground track
Ground track

The orbit data is extracted from the following two-line orbital elements,

1 42708U 98067LR  18347.76439539  .00074569  00000-0  28069-3 0  9999
2 42708  51.6257 148.7346 0002797 226.9685 133.1085 15.87107514 90217
Epoch (UTC): 13 December 2018 18:20:43
Eccentricity: 0.0002797
inclination: 51.6257°
perigee height: 308 km
apogee height: 312 km
right ascension of ascending node: 148.7346°
argument of perigee: 226.9685°
revolutions per day: 15.87107514
mean anomaly at epoch: 133.1085°
orbit number at epoch: 9021

The dashed part of the orbit path shows where the satellite is in the earth's shadow,  

DLR